SCP
0 0 0 0 0 0 0 0 0 0 0 0 0 0 0 0 0 0 0 0 0 0 0 0 0 0 0 0 0 0 0 0 0 0 0 0 0 0 0 0 0 0 0 0
0 0 0 0 0 0 0 0 0 0 0 0 0 0 0 0 0 0 0 0 0 0 0 0 0 0 0 0 0 0 0 0 0 0 0 0 0 0 0 0 0 0 0 0
0 0 0 0 0 0 0 0 0 0 0 0 0 0 0 0 0 0 0 0 0 0 0 0 0 0 0 0 0 0 0 0 0 0 0 0 0 0 0 0 0 0 0 0
0 0 0 0 0 0 0 0 0 0 0 0 0 0 0 0 0 0 0 0 0 0 0 0 0 0 0 0 0 0 0 0 0 0 0 0 0 0 0 0 0 0 0 0
0 0 0 0 -0 0 0 0 0 0 0 0 0 0 0 0 0 0 0 0 0 0 0 0 0 0 0 0 0 0 0 0 0 0 0 0 0 0 0 0 0 0 0 0
0 0 0 -0 0 0 0 0 0 0 0 0 0 0 0 0 0 0 0 0 0 0 0 0 0 0 0 0 0 0 0 0 0 0 0 0 0 0 0 0 0 0 0 0
0 0 0 0 0 0 0 0 0 0 0 0 0 0 0 0 0 0 0 0 0 0 0 0 0 0 0 0 0 0 0 0 0 0 0 0 0 0 0 0 0 0 0 0
0 0 0 0 0 0 0 0 0 0 0 0 0 0 0 0 0 0 0 0 0 0 0 0 0 0 0 0 0 0 0 0 0 0 0 0 0 0 0 0 0 0 0 0
0 0 0 0 0 0 0 0 0 0 0 0 0 0 0 0 0 0 0 0 0 0 0 0 0 0 0 0 0 0 0 0 0 0 0 0 0 0 0 0 0 0 0 0
0 0 0 0 0 0 0 0 0 0 0 0 0 0 0 0 0 0 0 0 0 0 0 0 0 0 0 0 0 0 0 0 0 0 0 0 0 -0 -0 0 0 0 0 0
0 0 0 0 0 0 0 0 0 0 0 0 0 0 0 0 0 0 0 0 0 0 0 0 0 0 0 0 0 0 0 0 0 0 0 0 0 0 0 0 0 0 0 0
0 0 0 0 0 0 0 0 0 0 0 0 0 0 0 0 0 0 0 0 0 0 0 0 0 0 0 0 0 0 0 0 0 0 0 0 0 0 0 0 0 0 0 0
0 0 0 0 0 0 0 0 0 0 0 0 0 0 0 0 0 0 0 0 0 0 0 0 0 0 0 0 0 0 0 0 0 0 0 0 0 0 0 0 0 0 0 0
0 0 0 0 0 0 0 0 0 0 0 0 0 0 0 0 0 0 0 0 0 0 0 0 0 0 -0 0 0 0 0 0 0 0 0 0 0 0 0 0 0 0 0 0
0 0 0 0 0 0 0 0 0 0 0 0 0 0 0 0 0 0 0 0 0 0 0 0 -0 -0 -0 0 0 0 0 0 0 0 0 0 0 0 0 0 0 0 0 0
0 0 0 0 0 0 0 0 0 0 0 0 0 0 0 0 0 0 0 0 0 0 0 -0 -0 -0 -0 0 0 0 0 0 0 0 0 0 0 0 0 0 0 0 0 0
0 0 0 0 0 0 0 0 0 0 0 0 0 0 0 0 0 0 0 0 0 0 -0 -0 -0 -0 0 0 0 0 0 0 0 0 0 0 0 0 0 0 0 0 0 0
0 0 0 0 0 0 0 0 0 0 0 0 0 0 0 0 0 0 0 0 0 0 -0 -0 -0 0 0 0 0 0 0 0 0 0 0 0 0 0 0 0 0 0 0 -0
0 0 0 0 0 0 0 0 0 0 0 0 0 0 0 0 0 0 0 0 0 0 0 0 0 0 0 0 0 0 0 0 0 0 0 0 0 0 0 0 0 -0 -0 -0
0 0 0 0 0 0 0 0 0 0 0 0 0 0 0 0 0 0 -0 -0 -0 0 0 0 0 0 0 0 0 0 0 0 0 0 0 0 0 0 0 0 -0 -0 -0 -0
0 0 0 0 0 0 0 0 0 0 0 0 0 0 0 0 0 0 0 -0 0 0 0 0 0 0 0 0 0 0 0 0 0 0 0 0 0 -0 -0 -0 -0 -0 0 -0
0 0 0 0 0 0 0 0 0 0 0 0 0 0 0 0 0 0 0 0 0 0 0 0 0 0 0 0 0 0 0 0 0 0 -0 -0 -0 -0 0 -0 -0 -0 -0 -0
0 0 0 0 0 0 0 0 0 0 0 0 0 0 0 0 0 0 0 0 0 0 0 0 0 0 0 0 0 0 0 0 -0 -0 -0 0 -0 0 0 0 0 0 0 0
0 0 0 0 0 0 0 0 0 0 0 0 0 0 0 0 0 0 0 0 0 0 0 0 0 0 0 0 0 0 0 -0 -0 -0 0 0 0 0 0 0 0 0 0 0
0 0 0 0 0 0 0 0 0 0 0 0 0 0 0 0 0 0 0 0 0 0 0 0 0 0 0 0 0 0 0 0 0 0 0 0 0 0 0 0 0 0 0 0
0 0 0 0 0 0 0 0 0 0 0 0 0 0 0 0 0 0 0 0 0 0 0 0 0 0 0 0 0 0 0 0 0 0 0 0 0 0 0 0 0 0 0 0
Wind_Speed_500mb
16 19 16 14 5 6 9 10 9 5 6 7 16 16 18 24 37 38 36 33 36 37 37 33 20 14 21 26 27 26 25 21 18 16 10 7 3 1 3 11 19 19 20 22
7 19 14 9 14 15 9 8 6 3 6 2 9 15 17 25 27 27 27 29 29 31 33 32 27 16 5 16 21 21 20 18 15 10 10 6 3 8 14 23 27 27 29 34
22 9 11 19 21 15 9 6 1 4 3 9 16 10 9 11 15 20 28 27 30 30 27 23 19 15 13 7 3 6 11 15 19 22 23 23 26 29 30 32 37 35 37 40
14 7 19 22 13 5 4 4 7 10 6 12 4 9 9 7 9 15 19 23 25 27 27 29 25 19 20 15 8 13 18 23 28 32 34 35 37 42 42 52 51 49 42 39
7 14 15 19 6 5 5 5 3 7 11 5 4 8 13 11 6 6 11 17 22 24 24 23 18 15 17 20 24 25 29 30 31 33 35 42 49 58 64 62 62 58 54 48
9 5 7 6 4 7 6 2 5 4 3 9 7 6 13 10 5 4 5 13 17 18 19 19 18 18 19 20 25 30 36 38 40 44 47 47 49 49 55 58 68 66 72 68
5 6 1 8 2 7 13 7 4 4 4 6 6 12 6 7 4 3 2 7 12 14 14 18 23 27 32 36 39 41 42 43 42 46 48 46 46 50 56 56 59 61 58 63
1 6 12 13 7 5 9 7 3 8 6 14 10 9 5 7 7 7 4 3 9 15 21 23 29 36 41 51 54 57 61 65 63 62 65 66 66 67 70 67 67 65 63 64
2 6 3 17 9 5 4 5 4 1 2 7 2 2 10 11 5 8 8 9 20 28 33 37 39 43 50 55 54 56 60 63 64 69 73 79 84 88 89 82 77 71 65 64
5 3 1 4 2 20 9 9 1 4 7 11 6 9 14 16 8 4 10 16 23 34 41 44 47 47 48 51 54 58 62 65 70 72 79 82 96 103 103 87 84 76 66 60
5 1 5 5 4 4 5 5 6 2 4 7 12 6 3 7 7 11 24 24 37 47 52 54 55 48 51 55 61 59 59 60 60 60 62 72 84 85 72 72 81 81 81 65
4 4 1 2 5 5 2 5 4 2 3 9 11 16 2 9 6 14 20 32 45 47 54 57 56 57 60 64 65 66 67 63 60 63 71 73 72 65 65 65 63 62 60 57
10 1 1 3 6 5 8 6 5 3 1 15 14 11 6 7 11 21 28 41 48 54 57 57 59 62 67 70 68 71 62 61 71 70 64 63 58 63 66 64 62 56 56 57
10 5 7 8 8 2 7 12 16 11 7 22 26 41 32 25 29 33 43 51 58 62 63 65 66 72 74 76 71 68 67 62 61 58 55 58 59 58 55 54 56 66 62 60
2 6 8 14 16 11 16 20 19 21 29 17 33 30 33 31 26 35 41 52 65 72 73 72 73 80 82 76 71 63 65 56 60 66 65 67 66 63 61 59 56 56 52 51
2 3 3 8 9 13 20 22 21 26 22 21 23 33 19 32 34 48 51 62 68 72 75 78 86 84 78 73 67 61 70 71 68 67 69 68 64 60 59 54 54 56 52 53
6 8 5 6 5 13 21 12 9 5 8 13 19 32 35 27 48 48 53 63 68 73 80 89 86 75 72 68 64 75 76 70 66 68 66 62 60 60 57 54 49 48 49 50
10 9 4 6 5 7 7 6 3 7 16 22 28 19 28 41 47 48 55 58 64 77 85 87 77 74 72 75 78 77 73 69 63 66 63 57 55 55 53 51 50 50 50 47
6 7 5 5 6 17 6 8 7 7 20 23 9 26 38 44 44 48 55 60 68 74 81 77 72 73 80 77 76 73 70 65 60 62 57 54 51 50 49 47 46 45 43 43
9 4 5 6 6 8 5 11 5 7 9 13 18 31 43 38 23 34 73 71 72 73 73 69 77 79 78 76 68 67 67 63 59 55 54 50 46 44 42 41 42 38 38 44
7 5 14 9 11 11 8 14 12 6 11 18 26 36 41 29 41 65 71 75 75 75 70 71 75 76 77 74 64 65 63 61 53 55 48 39 39 35 33 40 33 33 30 27
10 11 6 5 8 9 20 11 9 13 17 24 31 36 39 44 57 63 66 73 76 78 75 75 79 78 75 62 61 61 60 53 50 46 33 34 32 30 32 35 32 29 29 27
8 8 5 14 6 4 24 21 21 29 27 32 31 39 40 48 58 61 67 74 73 74 75 78 77 76 68 59 59 59 54 45 45 32 29 28 23 23 30 31 24 20 20 19
9 11 6 5 6 18 16 21 28 26 24 34 38 41 48 46 53 61 65 70 70 73 76 75 72 73 68 59 55 50 42 44 35 28 26 20 22 26 17 20 19 18 12 5
3 20 10 10 22 22 13 11 14 19 30 35 35 43 52 48 53 56 65 65 67 67 71 68 69 68 61 56 52 51 41 31 24 22 17 21 17 20 21 18 22 14 10 8
19 11 10 9 11 10 15 13 16 27 31 32 38 47 48 47 55 58 61 60 61 66 64 66 63 60 59 53 50 44 37 25 20 15 16 21 18 20 17 17 22 17 19 18
Wind_Direction_500mb
33 62 40 0 27 95 111 108 115 154 56 99 94 89 45 35 49 49 48 36 31 30 21 11 336 304 257 229 207 200 198 196 200 201 208 190 191 258 317 333 329 329 331 336
85 41 355 79 94 78 96 109 58 249 28 153 159 96 62 47 47 46 48 45 38 34 33 34 33 39 121 188 193 200 207 216 218 227 216 209 304 315 312 311 315 313 312 318
86 49 67 77 65 80 61 89 160 280 4 86 149 157 125 66 58 55 53 56 49 41 35 41 57 73 69 78 159 259 284 290 279 272 268 274 281 292 295 304 310 308 305 306
73 28 63 67 64 339 235 343 290 279 250 282 232 289 169 124 82 55 42 43 43 41 41 41 41 33 16 358 304 271 263 269 263 262 265 270 276 283 290 294 298 302 299 291
94 60 58 57 46 315 53 342 324 302 244 273 163 248 138 192 146 73 34 35 32 31 26 24 23 8 353 335 324 310 296 290 283 281 284 289 290 292 291 289 289 288 292 285
106 84 34 357 95 44 310 210 80 87 189 239 129 324 177 189 179 156 36 25 17 13 10 10 14 7 351 327 312 302 296 294 286 279 281 289 295 301 301 300 298 294 291 287
110 57 6 12 42 47 21 352 331 207 226 308 141 281 4 148 87 30 38 31 24 20 8 359 352 348 337 327 317 309 301 294 290 284 279 277 284 299 301 301 300 299 295 289
221 196 6 356 28 348 39 4 309 293 285 308 280 256 117 111 84 73 85 30 15 356 344 334 326 321 322 316 306 300 296 293 292 287 283 287 294 301 308 300 295 292 293 288
174 132 78 61 41 345 87 74 15 242 237 264 241 194 199 176 91 51 14 333 337 338 326 320 319 317 319 320 318 317 304 296 291 286 289 292 293 294 298 296 289 288 286 283
128 189 58 87 267 55 67 122 207 35 305 295 239 268 287 202 234 266 299 316 324 325 323 319 319 317 320 317 315 312 306 300 300 294 286 290 293 294 296 290 281 280 281 283
102 84 132 219 48 119 144 125 77 358 256 278 304 300 147 267 195 337 330 321 322 324 322 320 317 314 314 313 312 308 305 300 295 293 293 296 296 294 290 285 283 280 277 269
63 121 102 34 316 290 249 149 121 167 231 246 282 289 31 170 159 328 310 320 321 320 318 317 316 315 316 313 310 308 305 301 297 294 295 296 296 292 290 291 287 282 273 260
172 56 9 169 158 178 239 193 147 121 203 245 275 272 178 198 275 315 319 324 320 319 318 315 314 312 313 312 309 307 303 298 297 295 296 299 296 294 293 288 283 276 279 275
133 146 219 249 295 128 224 223 211 239 251 285 266 289 299 310 326 325 327 325 323 323 321 318 313 313 313 311 308 306 303 300 300 298 296 294 294 299 296 291 284 283 279 270
145 237 205 253 253 230 257 260 263 250 273 270 294 296 305 321 317 318 321 320 324 322 322 320 316 313 312 311 309 307 306 305 303 305 304 303 304 306 304 297 284 283 279 275
40 204 218 269 275 243 260 267 273 278 279 264 283 295 342 314 310 321 323 321 322 321 320 318 316 313 311 310 309 306 308 313 312 308 307 305 304 307 304 299 290 287 280 273
173 162 189 261 351 316 276 273 210 265 244 283 288 313 318 311 316 322 316 319 319 319 318 318 316 313 311 310 307 309 313 315 311 310 309 308 305 303 303 302 289 286 284 280
147 151 190 290 303 252 78 94 149 252 284 279 297 306 311 314 315 312 314 316 316 319 318 317 316 313 313 314 316 314 315 314 311 309 311 310 308 304 301 298 291 286 277 275
192 157 178 261 239 300 179 192 194 190 282 300 245 303 311 314 312 309 325 321 316 317 317 314 315 315 319 322 322 319 319 317 312 313 314 312 308 306 303 298 294 289 283 273
121 79 227 167 264 268 114 175 165 142 274 203 270 298 310 320 309 316 325 323 320 319 318 315 320 320 323 324 325 324 323 321 315 320 313 310 307 305 304 304 303 297 286 281
167 175 225 219 246 274 187 156 154 283 307 310 296 295 306 303 306 311 318 322 322 322 321 321 325 320 324 328 328 326 324 323 321 317 314 307 307 309 309 310 307 298 291 279
192 175 193 172 229 266 163 139 203 278 285 300 303 308 306 306 310 315 321 322 324 325 327 332 329 329 331 334 333 328 322 328 332 326 317 311 312 311 306 308 307 300 294 289
212 214 189 203 239 159 195 240 268 287 285 299 303 318 315 308 313 319 322 324 326 327 328 334 333 331 334 339 338 332 330 334 329 326 321 319 319 324 318 311 318 319 299 296
211 181 225 196 205 242 254 279 290 287 296 313 318 317 318 310 317 321 324 326 326 333 332 336 337 334 336 342 342 342 343 335 334 330 329 333 342 335 354 359 345 336 337 331
204 163 200 246 274 278 274 300 300 301 314 318 317 317 315 318 322 325 325 327 333 334 337 339 342 340 343 346 347 346 343 337 345 339 360 354 345 13 20 23 15 22 19 68
189 188 188 229 218 229 276 306 305 308 315 321 316 316 318 324 326 328 327 332 334 335 338 344 346 347 346 349 354 1 0 2 357 10 12 10 35 16 34 27 26 58 72 82
Wind_Speed_850mb
16 19 16 14 5 6 9 10 9 5 6 7 16 16 18 24 37 38 36 33 36 37 37 33 20 14 21 26 27 26 25 21 18 16 10 7 3 1 3 11 19 19 20 22
7 19 14 9 14 15 9 8 6 3 6 2 9 15 17 25 27 27 27 29 29 31 33 32 27 16 5 16 21 21 20 18 15 10 10 6 3 8 14 23 27 27 29 34
22 9 11 19 21 15 9 6 1 4 3 9 16 10 9 11 15 20 28 27 30 30 27 23 19 15 13 7 3 6 11 15 19 22 23 23 26 29 30 32 37 35 37 40
14 7 19 22 13 5 4 4 7 10 6 12 4 9 9 7 9 15 19 23 25 27 27 29 25 19 20 15 8 13 18 23 28 32 34 35 37 42 42 52 51 49 42 39
7 14 15 19 6 5 5 5 3 7 11 5 4 8 13 11 6 6 11 17 22 24 24 23 18 15 17 20 24 25 29 30 31 33 35 42 49 58 64 62 62 58 54 48
9 5 7 6 4 7 6 2 5 4 3 9 7 6 13 10 5 4 5 13 17 18 19 19 18 18 19 20 25 30 36 38 40 44 47 47 49 49 55 58 68 66 72 68
5 6 1 8 2 7 13 7 4 4 4 6 6 12 6 7 4 3 2 7 12 14 14 18 23 27 32 36 39 41 42 43 42 46 48 46 46 50 56 56 59 61 58 63
1 6 12 13 7 5 9 7 3 8 6 14 10 9 5 7 7 7 4 3 9 15 21 23 29 36 41 51 54 57 61 65 63 62 65 66 66 67 70 67 67 65 63 64
2 6 3 17 9 5 4 5 4 1 2 7 2 2 10 11 5 8 8 9 20 28 33 37 39 43 50 55 54 56 60 63 64 69 73 79 84 88 89 82 77 71 65 64
5 3 1 4 2 20 9 9 1 4 7 11 6 9 14 16 8 4 10 16 23 34 41 44 47 47 48 51 54 58 62 65 70 72 79 82 96 103 103 87 84 76 66 60
5 1 5 5 4 4 5 5 6 2 4 7 12 6 3 7 7 11 24 24 37 47 52 54 55 48 51 55 61 59 59 60 60 60 62 72 84 85 72 72 81 81 81 65
4 4 1 2 5 5 2 5 4 2 3 9 11 16 2 9 6 14 20 32 45 47 54 57 56 57 60 64 65 66 67 63 60 63 71 73 72 65 65 65 63 62 60 57
10 1 1 3 6 5 8 6 5 3 1 15 14 11 6 7 11 21 28 41 48 54 57 57 59 62 67 70 68 71 62 61 71 70 64 63 58 63 66 64 62 56 56 57
10 5 7 8 8 2 7 12 16 11 7 22 26 41 32 25 29 33 43 51 58 62 63 65 66 72 74 76 71 68 67 62 61 58 55 58 59 58 55 54 56 66 62 60
2 6 8 14 16 11 16 20 19 21 29 17 33 30 33 31 26 35 41 52 65 72 73 72 73 80 82 76 71 63 65 56 60 66 65 67 66 63 61 59 56 56 52 51
2 3 3 8 9 13 20 22 21 26 22 21 23 33 19 32 34 48 51 62 68 72 75 78 86 84 78 73 67 61 70 71 68 67 69 68 64 60 59 54 54 56 52 53
6 8 5 6 5 13 21 12 9 5 8 13 19 32 35 27 48 48 53 63 68 73 80 89 86 75 72 68 64 75 76 70 66 68 66 62 60 60 57 54 49 48 49 50
10 9 4 6 5 7 7 6 3 7 16 22 28 19 28 41 47 48 55 58 64 77 85 87 77 74 72 75 78 77 73 69 63 66 63 57 55 55 53 51 50 50 50 47
6 7 5 5 6 17 6 8 7 7 20 23 9 26 38 44 44 48 55 60 68 74 81 77 72 73 80 77 76 73 70 65 60 62 57 54 51 50 49 47 46 45 43 43
9 4 5 6 6 8 5 11 5 7 9 13 18 31 43 38 23 34 73 71 72 73 73 69 77 79 78 76 68 67 67 63 59 55 54 50 46 44 42 41 42 38 38 44
7 5 14 9 11 11 8 14 12 6 11 18 26 36 41 29 41 65 71 75 75 75 70 71 75 76 77 74 64 65 63 61 53 55 48 39 39 35 33 40 33 33 30 27
10 11 6 5 8 9 20 11 9 13 17 24 31 36 39 44 57 63 66 73 76 78 75 75 79 78 75 62 61 61 60 53 50 46 33 34 32 30 32 35 32 29 29 27
8 8 5 14 6 4 24 21 21 29 27 32 31 39 40 48 58 61 67 74 73 74 75 78 77 76 68 59 59 59 54 45 45 32 29 28 23 23 30 31 24 20 20 19
9 11 6 5 6 18 16 21 28 26 24 34 38 41 48 46 53 61 65 70 70 73 76 75 72 73 68 59 55 50 42 44 35 28 26 20 22 26 17 20 19 18 12 5
3 20 10 10 22 22 13 11 14 19 30 35 35 43 52 48 53 56 65 65 67 67 71 68 69 68 61 56 52 51 41 31 24 22 17 21 17 20 21 18 22 14 10 8
19 11 10 9 11 10 15 13 16 27 31 32 38 47 48 47 55 58 61 60 61 66 64 66 63 60 59 53 50 44 37 25 20 15 16 21 18 20 17 17 22 17 19 18
Wind_Direction_850mb
33 62 40 0 27 95 111 108 115 154 56 99 94 89 45 35 49 49 48 36 31 30 21 11 336 304 257 229 207 200 198 196 200 201 208 190 191 258 317 333 329 329 331 336
85 41 355 79 94 78 96 109 58 249 28 153 159 96 62 47 47 46 48 45 38 34 33 34 33 39 121 188 193 200 207 216 218 227 216 209 304 315 312 311 315 313 312 318
86 49 67 77 65 80 61 89 160 280 4 86 149 157 125 66 58 55 53 56 49 41 35 41 57 73 69 78 159 259 284 290 279 272 268 274 281 292 295 304 310 308 305 306
73 28 63 67 64 339 235 343 290 279 250 282 232 289 169 124 82 55 42 43 43 41 41 41 41 33 16 358 304 271 263 269 263 262 265 270 276 283 290 294 298 302 299 291
94 60 58 57 46 315 53 342 324 302 244 273 163 248 138 192 146 73 34 35 32 31 26 24 23 8 353 335 324 310 296 290 283 281 284 289 290 292 291 289 289 288 292 285
106 84 34 357 95 44 310 210 80 87 189 239 129 324 177 189 179 156 36 25 17 13 10 10 14 7 351 327 312 302 296 294 286 279 281 289 295 301 301 300 298 294 291 287
110 57 6 12 42 47 21 352 331 207 226 308 141 281 4 148 87 30 38 31 24 20 8 359 352 348 337 327 317 309 301 294 290 284 279 277 284 299 301 301 300 299 295 289
221 196 6 356 28 348 39 4 309 293 285 308 280 256 117 111 84 73 85 30 15 356 344 334 326 321 322 316 306 300 296 293 292 287 283 287 294 301 308 300 295 292 293 288
174 132 78 61 41 345 87 74 15 242 237 264 241 194 199 176 91 51 14 333 337 338 326 320 319 317 319 320 318 317 304 296 291 286 289 292 293 294 298 296 289 288 286 283
128 189 58 87 267 55 67 122 207 35 305 295 239 268 287 202 234 266 299 316 324 325 323 319 319 317 320 317 315 312 306 300 300 294 286 290 293 294 296 290 281 280 281 283
102 84 132 219 48 119 144 125 77 358 256 278 304 300 147 267 195 337 330 321 322 324 322 320 317 314 314 313 312 308 305 300 295 293 293 296 296 294 290 285 283 280 277 269
63 121 102 34 316 290 249 149 121 167 231 246 282 289 31 170 159 328 310 320 321 320 318 317 316 315 316 313 310 308 305 301 297 294 295 296 296 292 290 291 287 282 273 260
172 56 9 169 158 178 239 193 147 121 203 245 275 272 178 198 275 315 319 324 320 319 318 315 314 312 313 312 309 307 303 298 297 295 296 299 296 294 293 288 283 276 279 275
133 146 219 249 295 128 224 223 211 239 251 285 266 289 299 310 326 325 327 325 323 323 321 318 313 313 313 311 308 306 303 300 300 298 296 294 294 299 296 291 284 283 279 270
145 237 205 253 253 230 257 260 263 250 273 270 294 296 305 321 317 318 321 320 324 322 322 320 316 313 312 311 309 307 306 305 303 305 304 303 304 306 304 297 284 283 279 275
40 204 218 269 275 243 260 267 273 278 279 264 283 295 342 314 310 321 323 321 322 321 320 318 316 313 311 310 309 306 308 313 312 308 307 305 304 307 304 299 290 287 280 273
173 162 189 261 351 316 276 273 210 265 244 283 288 313 318 311 316 322 316 319 319 319 318 318 316 313 311 310 307 309 313 315 311 310 309 308 305 303 303 302 289 286 284 280
147 151 190 290 303 252 78 94 149 252 284 279 297 306 311 314 315 312 314 316 316 319 318 317 316 313 313 314 316 314 315 314 311 309 311 310 308 304 301 298 291 286 277 275
192 157 178 261 239 300 179 192 194 190 282 300 245 303 311 314 312 309 325 321 316 317 317 314 315 315 319 322 322 319 319 317 312 313 314 312 308 306 303 298 294 289 283 273
121 79 227 167 264 268 114 175 165 142 274 203 270 298 310 320 309 316 325 323 320 319 318 315 320 320 323 324 325 324 323 321 315 320 313 310 307 305 304 304 303 297 286 281
167 175 225 219 246 274 187 156 154 283 307 310 296 295 306 303 306 311 318 322 322 322 321 321 325 320 324 328 328 326 324 323 321 317 314 307 307 309 309 310 307 298 291 279
192 175 193 172 229 266 163 139 203 278 285 300 303 308 306 306 310 315 321 322 324 325 327 332 329 329 331 334 333 328 322 328 332 326 317 311 312 311 306 308 307 300 294 289
212 214 189 203 239 159 195 240 268 287 285 299 303 318 315 308 313 319 322 324 326 327 328 334 333 331 334 339 338 332 330 334 329 326 321 319 319 324 318 311 318 319 299 296
211 181 225 196 205 242 254 279 290 287 296 313 318 317 318 310 317 321 324 326 326 333 332 336 337 334 336 342 342 342 343 335 334 330 329 333 342 335 354 359 345 336 337 331
204 163 200 246 274 278 274 300 300 301 314 318 317 317 315 318 322 325 325 327 333 334 337 339 342 340 343 346 347 346 343 337 345 339 360 354 345 13 20 23 15 22 19 68
189 188 188 229 218 229 276 306 305 308 315 321 316 316 318 324 326 328 327 332 334 335 338 344 346 347 346 349 354 1 0 2 357 10 12 10 35 16 34 27 26 58 72 82